Home   Weather   Genoa   Past weeks

Flag for Italy Past Weather in Genoa, Italy — Yesterday and Last 2 Weeks

Now
68 °F

Passing clouds.


Feels Like: 68 °F
Forecast: 67 / 80 °F
Wind: 6 mph from Northeast

Location: Genova / Sestri

Current Time: May 27, 2017 at 2:23:09 am

Latest Report: May 27, 2017 at 1:50 am


Visibility: N/A

Pressure: 30.07 "Hg

Humidity: 56%

Dew Point: 52 °F

Location of GenoaLocation

Past Weather in Genoa — Graph

°F

Genoa Temperature Yesterday

Maximum temperature yesterday: 75 °F (at 11:50 am)
Minimum temperature yesterday: 66 °F (at 5:50 am)
Average temperature yesterday: 71 °F

High & Low Weather Summary for the Past Weeks

 TemperatureHumidityPressure
High77 °F (May 16, 11:50 am)100% (May 13, 12:20 am)30.30 "Hg (May 13, 12:20 am)
Low57 °F (May 15, 5:20 am)28% (May 21, 11:50 am)29.68 "Hg (May 12, 12:20 am)
Average67 °F70%30.05 "Hg
* Reported May 12 12:20 am — May 27 12:50 am, Genoa. Weather by CustomWeather, © 2017

Note: Actual official high and low records may vary slightly from our data, if they occured in-between our weather recording intervals... More about our weather records

Advertising

Genoa Weather History for the Previous 24 Hours

Scroll right to see more
 ConditionsComfort  
Time TempWeatherWind HumidityBarometerVisibility
12:50 am
Sat, May 27
66 °FPassing clouds.5 mph64%30.07 "HgN/A
12:20 am68 °FClear.6 mph60%30.04 "Hg10 mi
11:50 pm
Fri, May 26
68 °FClear.5 mph56%30.04 "Hg10 mi
11:20 pm68 °FPassing clouds.5 mph56%30.04 "HgN/A
10:50 pm68 °FPassing clouds.3 mph60%30.04 "HgN/A
10:20 pm70 °FPassing clouds.5 mph57%30.04 "HgN/A
9:50 pm70 °FPassing clouds.3 mph60%30.04 "HgN/A
9:20 pm70 °FClear.3 mph60%30.04 "Hg10 mi
8:20 pm72 °FSunny.2 mph53%30.01 "Hg10 mi
7:50 pm72 °FSunny.5 mph57%30.01 "Hg10 mi
6:50 pm72 °FPassing clouds.5 mph57%30.01 "HgN/A
5:20 pm73 °FSunny.6 mph47%30.04 "Hg10 mi
4:50 pm75 °FSunny.6 mph44%30.04 "Hg10 mi
4:20 pm75 °FPassing clouds.7 mph44%30.04 "HgN/A
3:50 pm75 °FSunny.7 mph44%30.04 "Hg10 mi
3:20 pm75 °FPassing clouds.6 mph41%30.07 "HgN/A
2:20 pm75 °FPassing clouds.5 mph39%30.07 "HgN/A
1:50 pm75 °FPassing clouds.6 mph39%30.07 "HgN/A
1:20 pm75 °FPassing clouds.5 mph39%30.07 "HgN/A
12:50 pm75 °FPassing clouds.5 mph41%30.09 "HgN/A
12:20 pm75 °FPassing clouds.5 mph44%30.09 "HgN/A
11:50 am75 °FSunny.6 mph44%30.09 "Hg10 mi
11:20 am73 °FSunny.3 mph47%30.09 "Hg10 mi
10:50 am73 °FPassing clouds.5 mph47%30.09 "HgN/A
10:20 am73 °FPassing clouds.6 mph41%30.09 "HgN/A
9:50 am73 °FPassing clouds.5 mph44%30.09 "HgN/A
9:20 am73 °FPassing clouds.5 mph41%30.09 "HgN/A
8:50 am73 °FSunny.3 mph41%30.09 "Hg10 mi
8:20 am72 °FPassing clouds.3 mph53%30.07 "HgN/A
7:50 am70 °FSunny.5 mph57%30.07 "Hg10 mi
7:20 am68 °FPassing clouds.5 mph60%30.07 "HgN/A
6:50 am66 °FPassing clouds.5 mph64%30.07 "HgN/A
6:20 am66 °FPassing clouds.6 mph60%30.07 "HgN/A
5:50 am66 °FScattered clouds.6 mph60%30.07 "HgN/A
5:20 am70 °FClear.2 mph50%30.07 "Hg10 mi
4:50 am70 °FClear.10 mph53%30.04 "Hg10 mi
4:20 am70 °FPassing clouds.8 mph53%30.04 "HgN/A
3:50 am72 °FPassing clouds.8 mph50%30.04 "HgN/A
3:20 am72 °FPassing clouds.8 mph53%30.04 "HgN/A
2:50 am70 °FClear.7 mph57%30.04 "Hg10 mi
2:20 am68 °FPassing clouds.6 mph60%30.01 "HgN/A
Weather by CustomWeather, © 2017

See weather overviewHow to use our weather pages